Location: Unspecified
(0.0000°N, 0.0000°E)
Time: 09:16:32
(UTC+02:00)

Amateur Radio Satellites - All Passes

Search period start: 18 April 2015 08:46
Search period end: 19 April 2015 08:46
Location: Unspecified, 0.0000°N, 0.0000°E

Satellite Date Start Highest point End Downlink Frequencies (MHz)
Time Altitude Azimuth
DANDE 18 Apr 08:48:08 08:53:56 19° 262° (W) 08:59:18 436.750
PCSat 18 Apr 09:01:24 09:02:36 11° 113° (ESE) 09:04:16 145.827
Cosmos 2499 18 Apr 09:02:26 09:09:38 53° 266° (W) 09:16:28 435.465 / 435.565
HO-68 18 Apr 09:26:12 09:31:27 23° 103° (ESE) 09:37:02 435.675
JUGNU 18 Apr 09:37:29 09:39:45 12° 9° (N) 09:42:06 437.505
BRITE-PL 18 Apr 09:40:52 09:46:03 56° 102° (ESE) 09:51:34 437.365/2234.400
AAUSAT CUBESAT 2 18 Apr 09:52:40 09:54:11 12° 100° (E) 09:55:59 437.432
STRAND 1 18 Apr 09:53:58 09:56:02 12° 259° (W) 09:57:41 437.568
DOVE 4 18 Apr 09:54:50 09:59:19 30° 101° (E) 10:04:00 437.250
CINEMA 3 18 Apr 10:07:29 10:10:45 18° 100° (E) 10:14:15 145.822/145.860
GOMX 1 18 Apr 10:13:05 10:18:22 82° 100° (E) 10:23:54 467.674
COMPASS 1 18 Apr 10:35:37 10:39:46 70° 102° (ESE) 10:43:56 437.405
PCSat 18 Apr 10:40:50 10:46:01 46° 290° (WNW) 10:51:09 145.827
CANX-2 18 Apr 10:41:09 10:45:17 48° 281° (W) 10:49:23 2200.000
FUNcube-1 18 Apr 10:47:12 10:49:22 14° 100° (E) 10:51:50 145.935
SEEDS 18 Apr 10:47:26 10:51:34 57° 281° (W) 10:55:42 437.485
CUTE 1.7 + AOD 2 18 Apr 10:51:48 10:55:46 38° 281° (W) 10:59:43 437.475
CUBEBUG 2 18 Apr 11:03:50 11:08:21 44° 101° (E) 11:12:52 437.445
UKube-1 18 Apr 11:07:03 11:08:59 13° 101° (E) 11:11:12 .
ZACube-1 18 Apr 11:07:23 11:11:14 28° 100° (E) 11:15:09 437.345
HO-68 18 Apr 11:12:31 11:19:04 38° 283° (WNW) 11:25:30 435.675
SRMSAT 18 Apr 11:18:31 11:21:01 13° 9° (N) 11:23:37 437.500
JUGNU 18 Apr 11:24:44 11:29:27 25° 17° (NNE) 11:34:14 437.505
AAUSAT CUBESAT 2 18 Apr 11:26:17 11:29:43 24° 280° (W) 11:33:03 437.432
Oscar 11 18 Apr 11:26:41 11:30:59 69° 281° (WNW) 11:35:17 145.826/435.025
DOVE 4 18 Apr 11:33:23 11:36:57 18° 279° (W) 11:40:18 437.250
Cosmos 2491 18 Apr 11:37:33 11:44:09 25° 85° (E) 11:51:12 435.465 / 435.565
CINEMA 3 18 Apr 11:43:36 11:47:48 26° 281° (W) 11:51:55 145.822/145.860
DX 1 18 Apr 11:45:27 11:49:41 54° 101° (ESE) 11:53:59 434.975-435.025
50 SAT 18 Apr 11:45:48 11:48:34 19° 100° (E) 11:51:28 437.505
UWE-3 18 Apr 11:48:14 11:52:51 58° 281° (W) 11:57:25 435.000/436.395/437.385
QB50P2 18 Apr 11:52:49 11:55:01 15° 80° (E) 11:57:28 145.880/145.840
DELFI C3 18 Apr 11:57:08 12:00:44 31° 281° (W) 12:04:18 145.870
TIGRISAT 18 Apr 12:05:53 12:10:05 56° 78° (ENE) 12:14:21 435.000
UNISAT 6 18 Apr 12:06:07 12:10:22 60° 79° (ENE) 12:14:40 437.425
O/OREOS (USA 219) 18 Apr 12:07:11 12:11:33 57° 75° (ENE) 12:15:56 437.305
HUMSAT D 18 Apr 12:11:54 12:16:14 88° 283° (WNW) 12:20:32 437.325/437.525
POPSAT HIP 1 18 Apr 12:14:55 12:18:35 30° 79° (E) 12:22:17 437.405
NANOSAT C BR1 18 Apr 12:15:41 12:19:22 30° 79° (E) 12:23:05 145.865
YUBILEINY 18 Apr 12:17:27 12:25:49 50° 94° (E) 12:34:17 435.215
VELOX 1 18 Apr 12:18:15 12:22:34 55° 102° (ESE) 12:26:58 145.980
FUNcube-1 18 Apr 12:21:41 12:25:36 27° 281° (W) 12:29:25 145.935
AISAT 18 Apr 12:32:26 12:36:54 88° 282° (WNW) 12:41:24 437.250
POLYITAN 1 18 Apr 12:40:02 12:44:14 77° 80° (E) 12:48:26 437.675
UKube-1 18 Apr 12:41:25 12:45:02 25° 281° (W) 12:48:32 .
ESTCUBE 1 18 Apr 12:41:32 12:45:51 51° 101° (ESE) 12:50:14 437.505/2401.250
ZACube-1 18 Apr 12:45:02 12:47:28 14° 280° (W) 12:49:37 437.345
ANTELSAT 18 Apr 12:48:10 12:52:03 32° 259° (W) 12:55:55 437.575/2403.000
CUBEBUG 1 18 Apr 12:48:57 12:53:13 56° 101° (E) 12:57:34 437.445
DUCHIFAT 1 18 Apr 12:51:50 12:56:01 74° 258° (WSW) 13:00:11 145.980
ISS 18 Apr 12:57:32 12:59:44 17° 127° (SE) 13:02:02 145.825
QB50P1 18 Apr 13:03:49 13:07:53 46° 259° (WSW) 13:11:54 145.935-145.965
SRMSAT 18 Apr 13:06:02 13:10:54 26° 17° (NNE) 13:15:51 437.500
SPROUT 18 Apr 13:08:25 13:11:18 18° 100° (E) 13:14:23 437.525
TISAT 1 18 Apr 13:11:14 13:13:28 15° 100° (E) 13:15:58 437.305
JUGNU 18 Apr 13:12:50 13:18:40 66° 21° (NNE) 13:24:33 437.505
50 SAT 18 Apr 13:20:53 13:23:17 15° 280° (W) 13:25:29 437.505
BUGSAT 1 18 Apr 13:25:48 13:29:35 34° 259° (W) 13:33:15 437.445
QB50P2 18 Apr 13:27:33 13:30:49 21° 259° (W) 13:33:57 145.880/145.840
Cosmos 2491 18 Apr 13:32:44 13:40:54 41° 265° (W) 13:48:58 435.465 / 435.565
RS-15 18 Apr 13:48:51 13:49:36 10° 119° (ESE) 13:51:54 29.354- 29.394
SO-50 18 Apr 13:50:52 13:55:11 54° 293° (WNW) 13:59:36 436.795
YUBILEINY 18 Apr 14:16:19 14:22:36 20° 276° (W) 14:28:17 435.215
AIST 1 18 Apr 14:24:06 14:28:12 49° 86° (E) 14:32:23
Cosmos 2504 18 Apr 14:32:27 14:39:24 31° 94° (E) 14:46:56 435.465 / 435.565
ISS 18 Apr 14:34:14 14:36:01 14° 307° (NW) 14:37:40 145.825
BEESAT 18 Apr 14:37:06 14:40:43 23° 101° (E) 14:44:29 436.000
SWISSCUBE 18 Apr 14:37:53 14:41:45 26° 101° (E) 14:45:45 437.505
SPROUT 18 Apr 14:44:12 14:47:17 18° 280° (W) 14:50:11 437.525
TISAT 1 18 Apr 14:45:48 14:49:09 22° 280° (W) 14:52:23 437.305
SRMSAT 18 Apr 14:54:21 15:00:18 68° 21° (NNE) 15:06:18 437.500
JUGNU 18 Apr 15:02:07 15:07:45 45° 200° (SSW) 15:13:25 437.505
Gurwin Techsat 1B 18 Apr 15:22:37 15:26:32 22° 79° (E) 15:30:38 435.225
Oscar 19 18 Apr 15:25:22 15:30:25 60° 258° (WSW) 15:35:27 437.125/150
ITUPSAT 1 18 Apr 15:37:24 15:42:04 56° 281° (WNW) 15:46:43 437.325
ITAMSAT 1 18 Apr 15:41:19 15:46:17 46° 78° (ENE) 15:51:15 435.822/435.867
RS-15 18 Apr 15:51:37 16:02:46 87° 111° (ESE) 16:13:40 29.354- 29.394
BEESAT 3 18 Apr 15:52:11 15:54:25 15° 66° (ENE) 15:56:51 437.485
BEESAT 18 Apr 16:15:08 16:18:27 18° 281° (W) 16:21:34 436.000
SWISSCUBE 18 Apr 16:16:33 16:19:31 16° 280° (W) 16:22:14 437.505
Cosmos 2504 18 Apr 16:25:13 16:32:40 34° 276° (W) 16:40:12 435.465 / 435.565
STARS 18 Apr 16:26:55 16:31:08 44° 101° (ESE) 16:35:23 437.465
AO-7 18 Apr 16:37:08 16:43:04 23° 76° (ENE) 16:49:23 29.400- 29.500
JAS-2 18 Apr 16:37:08 16:41:52 20° 77° (ENE) 16:47:16 435.910
SRMSAT 18 Apr 16:43:52 16:49:34 44° 200° (SSW) 16:55:17 437.500
KKS-1 18 Apr 16:48:12 16:52:32 49° 281° (WNW) 16:56:53 437.445
JUGNU 18 Apr 16:53:00 16:57:11 19° 194° (SSW) 17:01:17 437.505
VERMONT LUNAR 18 Apr 16:59:04 17:01:29 18° 139° (SE) 17:03:59 437.305
Gurwin Techsat 1B 18 Apr 17:02:06 17:06:24 24° 259° (WSW) 17:10:31 435.225
BEESAT 2 18 Apr 17:19:19 17:22:55 31° 248° (WSW) 17:26:27 435.950
ITAMSAT 1 18 Apr 17:24:39 17:25:43 10° 259° (W) 17:26:18 435.822/435.867
AIST 2 18 Apr 17:28:01 17:32:05 66° 68° (ENE) 17:36:07 435.215
BEESAT 3 18 Apr 17:29:29 17:32:20 18° 247° (WSW) 17:35:01 437.485
PHONESAT 2.4 18 Apr 17:43:35 17:45:31 14° 139° (SE) 17:47:34 2401.200-2431.200
HORYU 2 18 Apr 17:43:58 17:48:07 38° 258° (WSW) 17:52:14 437.375
MOZHAYETS 4 18 Apr 17:51:32 17:55:34 32° 101° (E) 17:59:40
RS-15 18 Apr 18:11:23 18:15:35 12° 298° (WNW) 18:18:23 29.354- 29.394
JAS-2 18 Apr 18:19:49 18:26:38 50° 259° (W) 18:33:58 435.910
AO-7 18 Apr 18:27:51 18:35:45 47° 255° (WSW) 18:43:31 29.400- 29.500
GONETS M04 18 Apr 18:34:43 18:43:27 88° 274° (W) 18:52:12
SRMSAT 18 Apr 18:34:58 18:39:11 19° 194° (SSW) 18:43:19 437.500
VERMONT LUNAR 18 Apr 18:36:13 18:38:58 22° 318° (NW) 18:41:41 437.305
JUGNU 18 Apr 18:45:37 18:47:07 11° 185° (S) 18:48:34 437.505
CUBESAT XI-V 18 Apr 19:06:53 19:08:31 12° 100° (E) 19:10:32 437.345
CUTE-I 18 Apr 19:09:49 19:13:42 22° 79° (E) 19:17:48 437.470
M-CUBED/EXP-1 PRIME 18 Apr 19:16:01 19:19:34 34° 104° (ESE) 19:22:53 437.505
Cubesat XI-IV 18 Apr 19:16:27 19:20:48 26° 79° (ENE) 19:25:17 437.490
Cosmos 2499 18 Apr 19:19:26 19:25:29 23° 95° (E) 19:32:13 435.465 / 435.565
PHONESAT 2.4 18 Apr 19:20:27 19:23:45 34° 317° (NW) 19:27:02 2401.200-2431.200
MOZHAYETS 4 18 Apr 19:31:11 19:32:43 11° 280° (W) 19:33:52
DANDE 18 Apr 19:56:55 19:58:56 18° 275° (W) 20:00:48 436.750
PRISM 18 Apr 19:57:11 20:00:53 34° 101° (ESE) 20:04:39 437.425
AUBIESAT-1 18 Apr 20:06:00 20:09:39 39° 286° (WNW) 20:13:02 437.475
SRMSAT 18 Apr 20:27:49 20:29:18 11° 185° (S) 20:30:43 437.500
JUGNU 18 Apr 20:36:01 20:37:19 11° 175° (S) 20:38:41 437.505
CUBESAT XI-V 18 Apr 20:41:47 20:45:52 31° 281° (W) 20:49:55 437.345
STRAND 1 18 Apr 20:44:25 20:49:30 80° 282° (WNW) 20:54:38 437.568
CUTE-I 18 Apr 20:49:17 20:53:40 25° 258° (WSW) 20:57:53 437.470
Cubesat XI-IV 18 Apr 20:56:49 21:00:47 20° 259° (WSW) 21:04:32 437.490
Cosmos 2499 18 Apr 21:10:27 21:18:30 46° 275° (W) 21:26:45 435.465 / 435.565
HO-68 18 Apr 21:18:24 21:23:01 19° 77° (ENE) 21:28:03 435.675
PCSat 18 Apr 21:34:12 21:39:03 35° 70° (ENE) 21:43:58 145.827
AAUSAT CUBESAT 2 18 Apr 21:56:36 21:58:47 14° 80° (E) 22:01:12 437.432
BRITE-PL 18 Apr 22:09:16 22:13:44 64° 258° (WSW) 22:17:54 437.365/2234.400
DOVE 4 18 Apr 22:16:33 22:20:36 47° 79° (E) 22:24:35 437.250
SRMSAT 18 Apr 22:18:21 22:19:39 11° 175° (S) 22:21:00 437.500
JUGNU 18 Apr 22:23:16 22:27:18 18° 166° (SSE) 22:31:24 437.505
CINEMA 3 18 Apr 22:24:12 22:27:28 23° 80° (E) 22:30:51 145.822/145.860
GOMX 1 18 Apr 22:38:38 22:42:45 43° 259° (WSW) 22:46:41 467.674
COMPASS 1 18 Apr 22:40:36 22:44:49 84° 77° (ENE) 22:49:02 437.405
CANX-2 18 Apr 22:48:12 22:52:11 38° 259° (W) 22:56:08 2200.000
SEEDS 18 Apr 22:53:26 22:57:31 46° 259° (W) 23:01:35 437.485
FUNcube-1 18 Apr 22:56:48 22:59:21 17° 80° (E) 23:02:07 145.935
CUTE 1.7 + AOD 2 18 Apr 22:58:48 23:02:36 31° 259° (W) 23:06:20 437.475
HO-68 18 Apr 23:03:50 23:10:38 45° 256° (WSW) 23:17:22 435.675
UKube-1 18 Apr 23:15:23 23:18:12 18° 80° (E) 23:21:12 .
CUBEBUG 2 18 Apr 23:16:57 23:21:04 63° 79° (E) 23:25:12 437.445
ZACube-1 18 Apr 23:17:38 23:21:25 35° 79° (E) 23:25:17 437.345
PCSat 18 Apr 23:19:15 23:22:24 15° 248° (WSW) 23:25:13 145.827
ANTELSAT 18 Apr 23:26:20 23:29:16 17° 100° (E) 23:32:23 437.575/2403.000
AAUSAT CUBESAT 2 18 Apr 23:31:03 23:34:18 21° 260° (W) 23:37:26 437.432
Oscar 11 18 Apr 23:35:44 23:39:56 50° 259° (W) 23:44:07 145.826/435.025
50 SAT 18 Apr 23:44:39 23:47:11 17° 80° (E) 23:49:53 437.505
DX 1 18 Apr 23:55:21 23:59:43 76° 77° (ENE) 00:04:02 434.975-435.025
DELFI C3 18 Apr 23:58:04 00:01:43 31° 259° (W) 00:05:19 145.870
QB50P2 18 Apr 23:58:58 00:01:54 19° 101° (E) 00:05:01 145.880/145.840
UWE-3 19 Apr 00:00:30 00:04:20 36° 259° (W) 00:08:11 435.000/436.395/437.385
CINEMA 3 19 Apr 00:02:53 00:04:36 12° 260° (W) 00:06:02 145.822/145.860
SRMSAT 19 Apr 00:05:45 00:09:46 19° 166° (SSE) 00:13:52 437.500
Cosmos 2491 19 Apr 00:09:51 00:18:07 50° 94° (E) 00:26:28 435.465 / 435.565
JUGNU 19 Apr 00:11:07 00:16:46 42° 160° (SSE) 00:22:24 437.505
HUMSAT D 19 Apr 00:17:45 00:21:51 72° 259° (W) 00:25:57 437.325/437.525
O/OREOS (USA 219) 19 Apr 00:18:00 00:22:35 80° 285° (WNW) 00:27:10 437.305
TIGRISAT 19 Apr 00:19:00 00:23:41 89° 278° (W) 00:28:18 435.000
UNISAT 6 19 Apr 00:19:33 00:24:14 85° 283° (WNW) 00:28:51 437.425
POPSAT HIP 1 19 Apr 00:21:18 00:25:16 38° 101° (E) 00:29:19 437.405
NANOSAT C BR1 19 Apr 00:21:50 00:25:48 39° 101° (E) 00:29:50 145.865
SO-50 19 Apr 00:25:33 00:28:03 15° 65° (ENE) 00:30:50 436.795
VELOX 1 19 Apr 00:30:28 00:34:55 83° 76° (ENE) 00:39:19 145.980
ISS 19 Apr 00:32:13 00:32:46 10° 52° (NE) 00:33:30 145.825
FUNcube-1 19 Apr 00:32:41 00:35:35 18° 260° (W) 00:38:20 145.935
AISAT 19 Apr 00:45:07 00:49:28 57° 258° (WSW) 00:53:47 437.250
POLYITAN 1 19 Apr 00:46:54 00:51:12 84° 282° (WNW) 00:55:33 437.675
YUBILEINY 19 Apr 00:50:39 00:59:23 87° 265° (W) 01:08:06 435.215
UKube-1 19 Apr 00:51:06 00:54:14 19° 259° (W) 00:57:11 .
ESTCUBE 1 19 Apr 00:55:50 01:00:24 84° 79° (ENE) 01:04:56 437.505/2401.250
DUCHIFAT 1 19 Apr 00:58:03 01:02:16 60° 281° (WNW) 01:06:30 145.980
CUBEBUG 1 19 Apr 00:59:30 01:03:54 82° 79° (E) 01:08:15 437.445
ANTELSAT 19 Apr 01:02:14 01:05:56 23° 281° (W) 01:09:29 437.575/2403.000
QB50P1 19 Apr 01:10:30 01:14:29 38° 281° (W) 01:18:29 145.935-145.965
SPROUT 19 Apr 01:16:21 01:19:41 23° 80° (E) 01:23:08 437.525
TISAT 1 19 Apr 01:17:00 01:19:41 17° 80° (E) 01:22:34 437.305
50 SAT 19 Apr 01:19:33 01:21:55 15° 260° (W) 01:24:06 437.505
BUGSAT 1 19 Apr 01:29:20 01:33:03 31° 281° (W) 01:36:47 437.445
QB50P2 19 Apr 01:34:43 01:37:41 18° 280° (W) 01:40:28 145.880/145.840
SRMSAT 19 Apr 01:53:44 01:59:22 43° 160° (SSE) 02:04:59 437.500
JUGNU 19 Apr 01:59:55 02:05:53 71° 339° (NNW) 02:11:47 437.505
SO-50 19 Apr 02:04:18 02:08:33 30° 247° (WSW) 02:12:37 436.795
ISS 19 Apr 02:06:29 02:09:04 22° 233° (SW) 02:11:36 145.825
Cosmos 2491 19 Apr 02:08:49 02:14:55 20° 276° (W) 02:20:25 435.465 / 435.565
Oscar 19 19 Apr 02:21:10 02:24:57 21° 101° (E) 02:28:56 437.125/150
ITUPSAT 1 19 Apr 02:24:21 02:26:53 15° 80° (E) 02:29:42 437.325
AIST 1 19 Apr 02:30:52 02:35:16 74° 94° (E) 02:39:36
Cosmos 2504 19 Apr 02:44:58 02:51:48 38° 85° (E) 02:58:27 435.465 / 435.565
TISAT 1 19 Apr 02:52:27 02:55:22 18° 259° (W) 02:58:06 437.305
SPROUT 19 Apr 02:53:22 02:55:40 14° 260° (W) 02:57:42 437.525
BEESAT 19 Apr 02:58:25 03:02:58 44° 78° (ENE) 03:07:32 436.000
SWISSCUBE 19 Apr 02:59:27 03:04:07 51° 78° (ENE) 03:08:46 437.505
KKS-1 19 Apr 03:28:08 03:28:51 11° 80° (E) 03:29:56 437.445
RS-15 19 Apr 03:32:11 03:44:10 75° 69° (ENE) 03:56:27 29.354- 29.394
SRMSAT 19 Apr 03:42:41 03:48:36 69° 338° (NNW) 03:54:30 437.500
BEESAT 3 19 Apr 03:46:35 03:49:06 17° 113° (ESE) 03:51:49 437.485
JUGNU 19 Apr 03:50:08 03:55:05 27° 342° (NNW) 03:59:57 437.505
Gurwin Techsat 1B 19 Apr 03:59:50 04:05:04 63° 102° (ESE) 04:10:20 435.225
Oscar 19 19 Apr 04:00:03 04:04:11 23° 281° (W) 04:08:10 437.125/150
ITUPSAT 1 19 Apr 04:00:31 04:04:41 28° 259° (WSW) 04:08:45 437.325
ITAMSAT 1 19 Apr 04:16:06 04:21:14 66° 282° (WNW) 04:26:24 435.822/435.867
HORYU 2 19 Apr 04:22:21 04:24:31 14° 100° (E) 04:26:58 437.375
VERMONT LUNAR 19 Apr 04:34:32 04:36:09 13° 41° (NE) 04:37:53 437.305
STARS 19 Apr 04:38:16 04:42:36 64° 78° (ENE) 04:46:55 437.465
Cosmos 2504 19 Apr 04:39:28 04:45:02 21° 265° (W) 04:50:01 435.465 / 435.565
KKS-1 19 Apr 05:01:26 05:05:24 32° 259° (WSW) 05:09:18 437.445
AO-7 19 Apr 05:01:58 05:09:25 39° 105° (ESE) 05:17:04 29.400- 29.500
GONETS M04 19 Apr 05:14:24 05:20:23 22° 84° (E) 05:26:55
BEESAT 2 19 Apr 05:14:46 05:18:18 28° 293° (WNW) 05:21:48 435.950
PHONESAT 2.4 19 Apr 05:24:10 05:25:22 12° 40° (NE) 05:26:44 2401.200-2431.200
BEESAT 3 19 Apr 05:24:17 05:27:01 17° 294° (WNW) 05:29:35 437.485
AIST 2 19 Apr 05:26:41 05:30:51 85° 112° (ESE) 05:35:04 435.215
CUSAT 1 19 Apr 05:29:54 05:31:06 11° 82° (E) 05:33:20 437.405
SRMSAT 19 Apr 05:33:06 05:37:59 26° 343° (NNW) 05:42:49 437.500
JUGNU 19 Apr 05:42:10 05:44:46 13° 350° (N) 05:47:17 437.505
RS-15 19 Apr 05:48:57 05:57:05 19° 243° (WSW) 06:04:09 29.354- 29.394
JAS-2 19 Apr 05:54:54 06:00:44 80° 282° (WNW) 06:06:04 435.910
HORYU 2 19 Apr 05:57:19 06:01:03 26° 281° (W) 06:04:42 437.375
MOZHAYETS 4 19 Apr 06:08:00 06:12:33 57° 79° (E) 06:17:06
VERMONT LUNAR 19 Apr 06:10:40 06:13:37 30° 222° (SW) 06:16:33 437.305
DANDE 19 Apr 06:54:34 07:02:35 60° 85° (E) 07:11:01 436.750
AO-7 19 Apr 06:55:07 07:02:05 29° 284° (WNW) 07:08:47 29.400- 29.500
PHONESAT 2.4 19 Apr 07:00:17 07:03:37 40° 223° (SW) 07:06:55 2401.200-2431.200
CUSAT 1 19 Apr 07:05:49 07:14:02 88° 265° (W) 07:22:15 437.405
GONETS M04 19 Apr 07:08:47 07:17:11 47° 266° (W) 07:25:25
M-CUBED/EXP-1 PRIME 19 Apr 07:16:55 07:20:53 40° 74° (ENE) 07:25:10 437.505
CUBESAT XI-V 19 Apr 07:23:44 07:27:17 22° 80° (E) 07:30:59 437.345
SRMSAT 19 Apr 07:25:16 07:27:51 13° 351° (N) 07:30:21 437.500
Cosmos 2499 19 Apr 07:30:21 07:36:00 25° 84° (E) 07:41:47 435.465 / 435.565
STRAND 1 19 Apr 07:40:23 07:43:13 16° 79° (E) 07:46:20 437.568
CUTE-I 19 Apr 07:47:52 07:53:06 63° 102° (ESE) 07:58:25 437.470
Cubesat XI-IV 19 Apr 07:55:04 08:00:22 78° 102° (ESE) 08:05:44 437.490
PRISM 19 Apr 08:00:55 08:04:52 40° 78° (ENE) 08:08:50 437.425
AUBIESAT-1 19 Apr 08:06:24 08:10:28 45° 256° (WSW) 08:14:47 437.475
